This is the latest recevied weather packets stored in our database for station/object SQ9SMC-13. If no packets are shown the sender has not sent any weather packets the latest 10 day(s).
| Time | Temp. | Humidity | Pressure | Rain* | Wind** | Luminosity | Snow |
|---|---|---|---|---|---|---|---|
| 1778036703 | 8.89° C | 85% | 1007.8 hPa | 0 mm | - | 1 W/m² | - |
| 1778036404 | 7.22° C | 89% | 1007.7 hPa | 0 mm | - | 0 W/m² | - |
| 1778036103 | 7.22° C | 89% | 1008 hPa | 0 mm | - | 0 W/m² | - |
| 1778035803 | 6.67° C | 88% | 1007.9 hPa | 0 mm | - | 0 W/m² | - |
| 1778035505 | 7.22° C | 88% | 1007.9 hPa | 0 mm | - | 0 W/m² | - |
| 1778035203 | 7.22° C | 88% | 1007.8 hPa | 0 mm | - | 0 W/m² | - |
| 1778034905 | 7.22° C | 87% | 1007.8 hPa | 0 mm | - | 0 W/m² | - |
| 1778034604 | 7.78° C | 87% | 1007.9 hPa | 0 mm | - | 0 W/m² | - |
| 1778034303 | 7.78° C | 86% | 1007.8 hPa | 0 mm | - | 0 W/m² | - |
| 1778034005 | 7.78° C | 85% | 1008.1 hPa | 0 mm | - | 0 W/m² | - |
| 1778033704 | 8.33° C | 85% | 1008 hPa | 0 mm | - | 0 W/m² | - |
| 1778033403 | 8.33° C | 84% | 1008 hPa | 0 mm | - | 0 W/m² | - |
| 1778033105 | 8.33° C | 84% | 1007.9 hPa | 0 mm | - | 0 W/m² | - |
| 1778032805 | 8.33° C | 83% | 1007.9 hPa | 0 mm | - | 0 W/m² | - |
| 1778032507 | 8.33° C | 83% | 1008 hPa | 0 mm | - | 0 W/m² | - |
| 1778032205 | 8.89° C | 83% | 1008.2 hPa | 0 mm | - | 0 W/m² | - |
| 1778031904 | 8.33° C | 84% | 1007.9 hPa | 0 mm | - | 0 W/m² | - |
| 1778031603 | 8.89° C | 84% | 1008.1 hPa | 0 mm | - | 0 W/m² | - |
| 1778031303 | 8.89° C | 83% | 1008 hPa | 0 mm | - | 0 W/m² | - |
| 1778031003 | 8.89° C | 81% | 1007.9 hPa | 0 mm | - | 0 W/m² | - |
| 1778030708 | 9.44° C | 80% | 1008 hPa | 0 mm | - | 0 W/m² | - |
| 1778030403 | 9.44° C | 79% | 1007.9 hPa | 0 mm | - | 0 W/m² | - |
| 1778030104 | 9.44° C | 78% | 1007.7 hPa | 0 mm | - | 0 W/m² | - |
| 1778029805 | 10° C | 77% | 1007.9 hPa | 0 mm | - | 0 W/m² | - |
| 1778029505 | 10° C | 76% | 1007.9 hPa | 0 mm | - | 0 W/m² | - |
* Rain latest hour (hover to see other rain measurements)
** Current wind speed in m/s (hover to see current wind gust speed)